GW5111 Weather Reports


time (UTC)temp
C
wind
direction
speed
KPH
gust
KPH
rain 1hr
cm
rain 24hr
cm
rain mn
cm
humidity
%
barometer
mb
20260504081944 7 306 3.2 6.4 0.00 0.00 0.00 65 1015.9
20260504081442 7 313 6.4 11.3 0.00 0.00 0.00 65 1015.8
20260504080937 7 279 14.5 16.1 0.00 0.00 0.00 64 1015.9
20260504080434 7 279 14.5 16.1 0.00 0.00 0.00 64 1015.9
20260504070402 7 280 9.7 11.3 0.00 0.00 0.00 62 1016.1
20260504050749 7 283 4.8 6.4 0.00 0.00 0.00 54 1016.9
20260504050247 7 294 6.4 6.4 0.00 0.00 0.00 52 1016.9
20260504045744 7 266 4.8 9.7 0.00 0.00 0.00 52 1016.8
20260504045238 7 299 4.8 11.3 0.00 0.00 0.00 51 1016.7
20260504044736 7 278 1.6 6.4 0.00 0.00 0.00 51 1016.7
20260504044234 6 316 3.2 6.4 0.00 0.00 0.00 51 1016.8
20260504043731 6 297 3.2 4.8 0.00 0.00 0.00 52 1016.7
20260504043227 6 289 3.2 3.2 0.00 0.00 0.00 53 1016.8
20260504042725 6 296 1.6 1.6 0.00 0.00 0.00 52 1016.6
20260504042221 6 303 3.2 3.2 0.00 0.00 0.00 51 1016.7
20260504041718 6 297 3.2 6.4 0.00 0.00 0.00 52 1016.6
20260504041214 6 308 3.2 6.4 0.00 0.00 0.00 50 1016.6
20260504040710 6 293 3.2 4.8 0.00 0.00 0.00 50 1016.7
20260504040208 7 298 1.6 4.8 0.00 0.00 0.00 50 1016.6
20260504035703 7 300 4.8 4.8 0.00 0.00 0.00 48 1016.6
20260504035201 7 296 3.2 4.8 0.00 0.00 0.00 48 1016.6
20260504034658 7 295 3.2 4.8 0.00 0.00 0.00 48 1016.5
20260504034155 7 288 3.2 4.8 0.00 0.00 0.00 48 1016.6
20260504033653 7 310 3.2 4.8 0.00 0.00 0.00 48 1016.5
20260504033150 7 283 3.2 4.8 0.00 0.00 0.00 48 1016.4
20260504032647 7 288 3.2 3.2 0.00 0.00 0.00 49 1016.5
20260504032144 7 286 3.2 4.8 0.00 0.00 0.00 48 1016.5
20260504031641 7 288 1.6 3.2 0.00 0.00 0.00 48 1016.5
20260504031137 7 301 3.2 3.2 0.00 0.00 0.00 48 1016.4
20260504030634 6 269 0.0 1.6 0.00 0.00 0.00 49 1016.2
20260504030131 7 314 1.6 3.2 0.00 0.00 0.00 52 1016.5
20260504025628 7 303 1.6 3.2 0.00 0.00 0.00 47 1016.5
20260504025124 7 318 3.2 4.8 0.00 0.00 0.00 48 1016.5
20260504024622 7 292 3.2 3.2 0.00 0.00 0.00 46 1016.3
20260504024118 7 273 1.6 4.8 0.00 0.00 0.00 47 1016.5
20260504023615 7 294 1.6 3.2 0.00 0.00 0.00 48 1016.6
20260504023111 7 312 3.2 3.2 0.00 0.00 0.00 47 1016.6
20260504022607 7 307 3.2 4.8 0.00 0.00 0.00 46 1016.5
20260504022103 7 318 3.2 3.2 0.00 0.00 0.00 46 1016.6
20260504021601 7 323 1.6 4.8 0.00 0.00 0.00 48 1016.6
20260504021058 7 327 3.2 4.8 0.00 0.00 0.00 47 1016.7
20260504020555 7 315 4.8 4.8 0.00 0.00 0.00 47 1016.5
20260504020051 7 350 3.2 6.4 0.00 0.00 0.00 47 1016.6
20260504015548 7 349 3.2 6.4 0.00 0.00 0.00 46 1016.5
20260504015043 7 351 3.2 4.8 0.00 0.00 0.00 46 1016.4
20260504014540 7 336 1.6 3.2 0.00 0.00 0.00 45 1016.5
20260504014037 7 333 3.2 4.8 0.00 0.00 0.00 46 1016.3
20260504013535 7 313 1.6 4.8 0.00 0.00 0.00 46 1016.4
20260504013032 7 335 4.8 4.8 0.00 0.00 0.00 45 1016.4
20260504012529 7 321 3.2 3.2 0.00 0.00 0.00 46 1016.4
20260504012027 7 336 3.2 4.8 0.00 0.00 0.00 46 1016.3
20260504011523 7 354 3.2 4.8 0.00 0.00 0.00 46 1016.3
20260504011019 7 343 3.2 4.8 0.00 0.00 0.00 45 1016.1
20260504010515 7 334 3.2 3.2 0.00 0.00 0.00 45 1015.9
20260504010011 7 322 1.6 1.6 0.00 0.00 0.00 45 1015.8
20260504005508 7 324 1.6 3.2 0.00 0.00 0.00 45 1016.1
20260504005006 7 325 3.2 3.2 0.00 0.00 0.00 45 1016.1
20260504004503 7 333 3.2 4.8 0.00 0.00 0.00 45 1015.9
20260504004000 7 318 1.6 3.2 0.00 0.00 0.00 45 1015.8
20260504003456 8 335 3.2 4.8 0.00 0.00 0.00 44 1016.1
20260504002953 8 327 3.2 3.2 0.00 0.00 0.00 46 1015.7
20260504002450 8 331 1.6 3.2 0.00 0.00 0.00 45 1015.6
20260504001948 8 318 3.2 4.8 0.00 0.00 0.00 45 1015.7
20260504001445 8 352 3.2 4.8 0.00 0.00 0.00 45 1015.8
20260504000942 8 345 3.2 4.8 0.00 0.00 0.00 44 1015.9
20260504000439 8 335 3.2 4.8 0.00 0.00 0.00 44 1015.8
20260503235936 9 337 3.2 4.8 0.00 0.00 0.00 42 1015.8
20260503235433 10 323 4.8 4.8 0.00 0.00 0.00 41 1015.8
20260503234931 10 303 1.6 9.7 0.00 0.00 0.00 41 1015.8
20260503234428 10 0 6.4 9.7 0.00 0.00 0.00 40 1015.8
20260503233926 10 322 4.8 11.3 0.00 0.00 0.00 41 1016.1
20260503233422 10 337 3.2 6.4 0.00 0.00 0.00 40 1016.1
20260503232919 10 308 4.8 11.3 0.00 0.00 0.00 39 1015.9
20260503232416 10 326 4.8 6.4 0.00 0.00 0.00 39 1015.8
20260503231914 10 338 6.4 14.5 0.00 0.00 0.00 38 1016.1
20260503231411 10 322 9.7 16.1 0.00 0.00 0.00 38 1015.9
20260503230907 11 315 4.8 9.7 0.00 0.00 0.00 38 1016.1
20260503230404 11 293 4.8 14.5 0.00 0.00 0.00 39 1016.2
20260503225901 10 329 11.3 12.9 0.00 0.00 0.00 38 1016.4
20260503225357 11 286 12.9 24.1 0.00 0.00 0.00 37 1016.1
20260503224854 11 358 8.0 20.9 0.00 0.00 0.00 37 1016.2
20260503224351 11 287 8.0 11.3 0.00 0.00 0.00 36 1016.2
20260503223849 11 320 3.2 14.5 0.00 0.00 0.00 38 1016.4
20260503223346 11 274 9.7 20.9 0.00 0.00 0.00 35 1016.2
20260503222841 11 300 8.0 12.9 0.00 0.00 0.00 36 1016.2
20260503222340 11 297 12.9 16.1 0.00 0.00 0.00 34 1016.1
20260503221838 11 323 6.4 11.3 0.00 0.00 0.00 36 1016.1
20260503221337 11 319 11.3 17.7 0.00 0.00 0.00 36 1016.1
20260503220832 11 309 11.3 20.9 0.00 0.00 0.00 35 1016.2
20260503220329 11 323 6.4 14.5 0.00 0.00 0.00 38 1016.2
20260503215826 11 202 8.0 12.9 0.00 0.00 0.00 41 1016.1
20260503215323 11 301 14.5 17.7 0.00 0.00 0.00 38 1016.3
20260503214821 11 281 8.0 12.9 0.00 0.00 0.00 41 1016.2
20260503214318 11 261 12.9 17.7 0.00 0.00 0.00 42 1016.3
20260503213815 11 333 9.7 11.3 0.00 0.00 0.00 40 1016.1
20260503213313 11 324 6.4 12.9 0.00 0.00 0.00 40 1016.4
20260503212809 11 292 6.4 9.7 0.00 0.00 0.00 39 1016.3
20260503212307 11 274 9.7 14.5 0.00 0.00 0.00 38 1016.3
20260503211805 11 317 9.7 16.1 0.00 0.00 0.00 38 1016.3
20260503211301 11 305 11.3 14.5 0.00 0.00 0.00 41 1016.4
20260503210801 11 332 6.4 14.5 0.00 0.00 0.00 34 1016.4
20260503210259 11 288 12.9 20.9 0.00 0.00 0.00 35 1016.5
20260503205754 11 296 6.4 14.5 0.00 0.00 0.00 37 1016.6
20260503205251 11 320 14.5 22.5 0.00 0.00 0.00 33 1016.5
20260503204747 11 277 3.2 11.3 0.00 0.00 0.00 35 1016.5
20260503204245 11 308 4.8 16.1 0.00 0.00 0.00 36 1016.5
20260503203742 11 298 12.9 25.7 0.00 0.00 0.00 39 1016.8
20260503203239 11 271 3.2 16.1 0.00 0.00 0.00 39 1016.6
20260503202736 11 297 11.3 17.7 0.00 0.00 0.00 41 1016.6
20260503202234 11 331 8.0 12.9 0.00 0.00 0.00 41 1016.7
20260503201732 11 301 9.7 12.9 0.00 0.00 0.00 39 1016.8
20260503201229 11 320 6.4 20.9 0.00 0.00 0.00 38 1016.9
20260503200725 10 63 17.7 22.5 0.00 0.00 0.00 39 1016.8
20260503200222 10 318 11.3 17.7 0.00 0.00 0.00 42 1016.9
20260503195718 10 275 12.9 20.9 0.00 0.00 0.00 40 1017.2
20260503195216 11 280 11.3 16.1 0.00 0.00 0.00 38 1017.2
20260503194713 10 261 6.4 16.1 0.00 0.00 0.00 39 1017.0
20260503194209 11 318 9.7 12.9 0.00 0.00 0.00 47 1017.4
20260503193705 11 306 11.3 17.7 0.00 0.00 0.00 36 1017.4
20260503193201 10 359 9.7 16.1 0.00 0.00 0.00 44 1017.4
20260503192657 10 273 4.8 11.3 0.00 0.00 0.00 40 1017.5
20260503192152 10 276 9.7 17.7 0.00 0.00 0.00 49 1017.7
20260503191649 10 299 17.7 24.1 0.00 0.00 0.00 40 1017.5
20260503191146 10 32 11.3 14.5 0.00 0.00 0.00 43 1017.6
20260503190643 10 61 6.4 14.5 0.00 0.00 0.00 38 1017.9
20260503190140 10 15 6.4 24.1 0.00 0.00 0.00 43 1017.9
20260503185637 10 329 11.3 22.5 0.00 0.00 0.00 43 1017.7
20260503185132 10 49 6.4 9.7 0.00 0.00 0.00 46 1017.8
20260503184627 10 328 6.4 16.1 0.00 0.00 0.00 39 1017.9
20260503184124 10 315 9.7 14.5 0.00 0.00 0.00 46 1018.0
20260503183620 10 29 8.0 16.1 0.00 0.00 0.00 44 1017.9
20260503183118 10 25 8.0 12.9 0.00 0.00 0.00 50 1018.0
20260503182616 10 295 9.7 14.5 0.00 0.00 0.00 40 1017.9
20260503182114 11 309 11.3 12.9 0.00 0.00 0.00 48 1017.9
20260503181610 10 299 6.4 6.4 0.00 0.00 0.00 53 1018.0
20260503181107 9 59 8.0 11.3 0.00 0.00 0.00 50 1017.9
20260503180604 9 31 9.7 12.9 0.00 0.00 0.00 42 1018.3
20260503175559 8 157 0.0 3.2 0.00 0.00 0.00 42 1018.3
20260503175056 9 31 8.0 12.9 0.00 0.00 0.00 38 1018.1
20260503174553 8 117 8.0 12.9 0.00 0.00 0.00 38 1018.5
20260503174049 8 261 9.7 14.5 0.00 0.00 0.00 43 1018.6
20260503173544 8 342 9.7 16.1 0.00 0.00 0.00 47 1018.5
20260503173041 8 72 8.0 9.7 0.00 0.00 0.00 43 1018.6
20260503172539 8 333 8.0 12.9 0.00 0.00 0.00 42 1018.7
20260503172035 8 15 11.3 20.9 0.00 0.00 0.00 46 1018.6
20260503171532 8 283 6.4 12.9 0.00 0.00 0.00 45 1018.7
20260503171030 8 331 8.0 16.1 0.00 0.00 0.00 40 1018.8
20260503170526 7 297 6.4 14.5 0.00 0.00 0.00 40 1018.7
20260503150918 5 311 11.3 14.5 0.00 0.00 0.00 51 1019.5
20260503150415 5 330 12.9 16.1 0.00 0.00 0.00 50 1019.2
20260503131308 2 293 11.3 16.1 0.00 0.00 0.00 67 1018.9
20260503130805 2 3 14.5 20.9 0.00 0.00 0.00 68 1019.0
20260503130302 2 334 8.0 16.1 0.00 0.00 0.00 74 1018.8
20260503110656 -1 305 3.2 4.8 0.00 0.00 0.00 91 1017.3
20260503110154 -1 308 4.8 6.4 0.00 0.00 0.00 91 1017.0
20260503100120 -1 344 3.2 6.4 0.00 0.00 0.00 90 1016.6